Hourly Data Report for September 30, 2017

All times are specified in Local Standard Time (LST). Add 1 hour to adjust for Daylight Saving Time where and when it is observed.

TORONTO INTL A
ONTARIO

43°40'36.000" N
79°37'50.000" W
173.40 m
6158731
71624
YYZ

Download Data

Hourly Data (September 2017)
Hourly Data Report for September 30, 2017
Temp Definition
°C
Dew Point Temp Definition
°C
Rel Hum Definition
%
Wind Dir Definition
10's deg

Wind Spd Definition
km/h
Visibility Definition
km
Stn Press Definition
kPa
Hmdx Definition


Wind Chill Definition


Weather Definition


TIME
00:00 Legend Double Dagger 8.4 5.9 84 35 21 24.1 100.17     LegendNANA
01:00 Legend Double Dagger 8.6 5.8 83 35 22 24.1 100.26     Mostly Cloudy
02:00 Legend Double Dagger 9.0 5.8 80 34 21 24.1 100.32     LegendNANA
03:00 Legend Double Dagger 8.7 5.0 77 34 25 24.1 100.38     LegendNANA
04:00 Legend Double Dagger 7.7 3.9 77 35 29 24.1 100.43     Mostly Cloudy
05:00 Legend Double Dagger 7.0 3.5 78 34 30 24.1 100.52     LegendNANA
06:00 Legend Double Dagger 6.3 3.0 79 34 25 24.1 100.62     LegendNANA
07:00 Legend Double Dagger 6.4 2.9 78 35 26 24.1 100.69     Mainly Clear
08:00 Legend Double Dagger 8.0 3.7 74 36 24 24.1 100.74     LegendNANA
09:00 Legend Double Dagger 9.7 3.8 67 36 21 24.1 100.83     LegendNANA
10:00 Legend Double Dagger 12.5 4.1 56 1 18 24.1 100.87     Mainly Clear
11:00 Legend Double Dagger 12.7 2.0 48 36 21 24.1 100.91     LegendNANA
12:00 Legend Double Dagger 13.4 2.0 46 35 12 24.1 100.91     LegendNANA
13:00 Legend Double Dagger 13.9 1.8 44 1 14 24.1 100.87     Mainly Clear
14:00 Legend Double Dagger 14.4 1.4 41 36 13 24.1 100.83     LegendNANA
15:00 Legend Double Dagger 13.7 0.3 40 3 3 24.1 100.79     LegendNANA
16:00 Legend Double Dagger 14.5 0.6 38 35 12 24.1 100.76     Clear
17:00 Legend Double Dagger 13.9 0.2 39 35 12 24.1 100.76     LegendNANA
18:00 Legend Double Dagger 12.7 0.9 44 36 10 24.1 100.78     LegendNANA
19:00 Legend Double Dagger 11.2 3.6 59 14 5 24.1 100.83     Clear
20:00 Legend Double Dagger 10.6 2.6 58 3 14 24.1 100.88     LegendNANA
21:00 Legend Double Dagger 9.3 3.2 66 1 14 24.1 100.90     LegendNANA
22:00 Legend Double Dagger 8.6 3.2 69 36 11 24.1 100.90     Clear
23:00 Legend Double Dagger 8.1 3.2 71 31 15 24.1 100.89     LegendNANA

Notes on Data Quality.

Legend

  • E = Estimated
  • M = Missing
  • NA = Not Available
  • ‡ = Partner data that is not subject to review by the National Climate Archives
Date modified: